Date String (YYYY-MM-DD hh:mm:ss) UTC,Instrument flags,absolute air pressure of the measurement (hPa),sample flow rate (lpm),inlet stack bypass flow (lpm),air temperature of the measurement (°C),ambient temperature measured by the external sensor (°C),aerosol sample conditioner tube jacket temperature (°C),OPC LED temperature (°C),internal box temperature (°C),relative humidity of the measurement (%),span deviation,mass concentration of particles derived from Lorenz-Mie calculation of OPC scattering (μg/m³),mass concentration of particles derived from Lorenz-Mie calculation of OPC scattering (μg/m³),mass concentration of particles derived from Lorenz-Mie calculation of OPC scattering (μg/m³)
DateTimeUTC,F1_M11,P_M11,Q1_M11,Q2_M11,T1_M11,T2_M11,T3_M11,T4_M11,T5_M11,U1_M11,ZSPAN_M11,X2_M11,X0_M11,X1_M11
2023-09-07 08:00:00,SystemResetWarning,0830.7,5.00,000.00,028.3,026.9,000.0,036.7,029.9,16.1,0002.9,0005.35,0012.17,0004.48
2023-09-07 08:01:00,SystemResetWarning,0830.8,5.00,000.00,028.3,027.0,000.0,036.7,030.0,17.6,0003.1,0005.28,0011.92,0004.45
2023-09-07 08:02:00,SystemResetWarning,0830.8,5.01,000.00,028.4,027.1,000.0,036.7,030.0,16.6,0003.3,0005.14,0011.79,0004.36
2023-09-07 08:03:00,SystemResetWarning,0830.8,5.00,000.00,028.4,027.2,000.0,036.7,030.0,15.4,0003.4,0005.06,0012.32,0004.28
2023-09-07 08:04:00,SystemResetWarning,0830.7,5.00,000.00,028.4,027.3,000.0,036.7,030.1,16.7,0003.3,0004.97,0011.88,0004.23
2023-09-07 08:05:00,SystemResetWarning,0830.8,5.00,000.00,028.4,027.3,000.0,036.8,030.1,16.5,0003.1,0004.90,0012.03,0004.16
2023-09-07 08:06:00,SystemResetWarning,0830.8,5.00,000.00,028.5,027.4,000.0,036.8,030.1,17.5,0002.8,0004.84,0012.34,0004.09
2023-09-07 08:07:00,SystemResetWarning,0830.9,5.01,000.00,028.5,027.4,000.0,036.8,030.2,18.2,0002.6,0004.75,0012.26,0004.01
2023-09-07 08:08:00,SystemResetWarning,0830.9,5.00,000.00,028.5,027.5,000.0,036.8,030.2,18.0,0002.3,0004.63,0012.88,0003.93
2023-09-07 08:09:00,SystemResetWarning,0830.9,5.00,000.00,028.6,027.5,000.0,036.8,030.2,18.4,0001.9,0004.53,0012.95,0003.85
2023-09-07 08:10:00,SystemResetWarning,0830.9,5.00,000.00,028.6,027.6,000.0,036.9,030.3,17.5,0001.7,0004.51,0012.97,0003.84
2023-09-07 08:11:00,SystemResetWarning,0830.8,5.00,000.00,028.6,027.5,000.0,036.9,030.3,17.2,0001.7,0004.47,0012.56,0003.81
2023-09-07 08:12:00,SystemResetWarning,0830.8,4.97,000.00,028.6,026.1,000.0,036.8,029.9,17.3,0001.3,0004.52,0013.23,0003.85
2023-09-07 08:13:00,SystemResetWarning,0830.8,5.01,000.00,028.5,024.8,000.0,036.8,029.7,16.1,0001.6,0004.66,0015.16,0003.95
2023-09-07 08:14:00,SystemResetWarning,0830.7,5.01,000.00,028.4,024.7,000.0,036.7,029.5,15.9,0001.5,0004.76,0014.84,0004.00
2023-09-07 08:15:00,SystemResetWarning,0830.7,5.01,000.00,028.3,025.0,000.0,036.7,029.5,15.5,0001.7,0004.87,0015.35,0004.07
2023-09-07 08:16:00,SystemResetWarning,0830.8,4.99,000.00,028.2,025.3,000.0,036.7,029.5,13.3,0002.1,0005.03,0015.65,0004.19
2023-09-07 08:17:00,SystemResetWarning,0830.8,4.99,000.00,028.2,025.6,000.0,036.7,029.6,12.4,0002.2,0005.23,0016.57,0004.33
2023-09-07 08:18:00,SystemResetWarning,0830.8,5.00,000.00,028.2,025.9,000.0,036.7,029.6,12.3,0002.1,0005.40,0017.36,0004.43
2023-09-07 08:19:00,SystemResetWarning,0830.7,5.00,000.00,028.2,026.2,000.0,036.7,029.7,11.8,0002.0,0005.52,0016.51,0004.51
2023-09-07 08:20:00,SystemResetWarning,0830.7,5.01,000.00,028.2,026.4,000.0,036.7,029.7,11.4,0002.1,0005.50,0016.58,0004.47
2023-09-07 08:21:00,SystemResetWarning,0830.8,5.01,000.00,028.2,026.6,000.0,036.7,029.8,11.5,0002.0,0005.39,0016.45,0004.38
2023-09-07 08:22:00,SystemResetWarning,0830.8,4.99,000.00,028.3,026.7,000.0,036.7,029.8,11.6,0001.7,0005.26,0016.23,0004.29
2023-09-07 08:23:00,SystemResetWarning,0830.8,4.99,000.00,028.3,026.9,000.0,036.7,029.8,11.4,0001.9,0005.14,0015.91,0004.18
2023-09-07 08:24:00,SystemResetWarning,0830.8,5.00,000.00,028.3,027.0,000.0,036.7,029.9,11.1,0001.5,0005.02,0013.76,0004.03
2023-09-07 08:25:00,SystemResetWarning,0830.9,5.00,000.00,028.3,027.1,000.0,036.7,029.9,11.1,0001.4,0004.80,0012.41,0003.86
2023-09-07 08:26:00,SystemResetWarning,0830.9,5.00,000.00,028.3,027.1,000.0,036.7,030.0,11.0,0001.4,0004.64,0011.64,0003.76
2023-09-07 08:27:00,SystemResetWarning,0830.8,5.01,000.00,028.4,027.2,000.0,036.7,030.0,11.1,0001.0,0004.51,0011.27,0003.66
2023-09-07 08:28:00,SystemResetWarning,0830.9,5.01,000.00,028.4,027.3,000.0,036.8,030.0,11.0,0000.8,0004.30,0010.38,0003.51
2023-09-07 08:29:00,SystemResetWarning,0830.8,5.00,000.00,028.4,027.3,000.0,036.8,030.1,11.1,0000.9,0004.10,0009.16,0003.37
2023-09-07 08:30:00,SystemResetWarning,0830.8,5.00,000.00,028.5,027.4,000.0,036.8,030.1,10.9,0000.1,0003.92,0008.54,0003.22
2023-09-07 08:31:00,SystemResetWarning,0830.8,5.00,000.00,028.5,027.4,000.0,036.8,030.1,10.9,0000.0,0003.80,0008.46,0003.14
2023-09-07 08:32:00,SystemResetWarning,0830.8,5.00,000.00,028.5,027.5,000.0,036.8,030.2,11.0,0000.0,0003.81,0008.06,0003.15
2023-09-07 08:33:00,SystemResetWarning,0830.8,5.00,000.00,028.6,027.5,000.0,036.8,030.2,10.9,0000.0,0003.81,0008.13,0003.14
2023-09-07 08:34:00,SystemResetWarning,0830.8,4.99,000.00,028.6,027.6,000.0,036.9,030.3,10.9,0000.0,0003.82,0008.05,0003.16
2023-09-07 08:35:00,SystemResetWarning,0830.8,5.00,000.00,028.6,027.6,000.0,036.9,030.3,10.9,0000.4,0003.79,0008.48,0003.20
2023-09-07 08:36:00,SystemResetWarning,0830.8,5.00,000.00,028.6,027.6,000.0,036.9,030.3,10.8,0000.9,0003.82,0009.73,0003.26
2023-09-07 08:37:00,SystemResetWarning,0830.7,5.00,000.00,028.7,027.7,000.0,036.9,030.3,10.6,0000.9,0003.92,0009.93,0003.35
2023-09-07 08:38:00,SystemResetWarning,0830.7,5.01,000.00,028.7,027.7,000.0,036.9,030.3,10.6,0001.0,0003.95,0010.13,0003.37
2023-09-07 08:39:00,SystemResetWarning,0830.7,4.98,000.00,028.7,026.6,000.0,036.9,030.1,10.8,0000.7,0003.96,0010.31,0003.36
2023-09-07 08:40:00,SystemResetWarning,0830.7,5.01,000.00,028.6,025.1,000.0,036.9,029.7,10.9,0000.4,0004.06,0010.59,0003.41
2023-09-07 08:41:00,SystemResetWarning,0830.6,5.02,000.00,028.5,024.9,000.0,036.8,029.6,10.8,0000.4,0004.07,0010.57,0003.44
2023-09-07 08:42:00,SystemResetWarning,0830.6,4.99,000.00,028.4,025.1,000.0,036.8,029.5,10.7,0000.5,0004.16,0011.60,0003.52
2023-09-07 08:43:00,SystemResetWarning,0830.7,5.00,000.00,028.3,025.4,000.0,036.8,029.6,11.2,0000.7,0004.25,0011.81,0003.62
2023-09-07 08:44:00,SystemResetWarning,0830.7,5.00,000.00,028.3,025.8,000.0,036.8,029.7,11.6,0000.9,0004.35,0011.72,0003.70
2023-09-07 08:45:00,SystemResetWarning,0830.7,4.99,000.00,028.3,026.1,000.0,036.8,029.7,11.3,0000.5,0004.45,0011.87,0003.80
2023-09-07 08:46:00,SystemResetWarning,0830.7,5.00,000.00,028.3,026.3,000.0,036.8,029.8,11.8,0000.7,0004.58,0011.94,0003.87
2023-09-07 08:47:00,SystemResetWarning,0830.7,5.00,000.00,028.3,026.6,000.0,036.8,029.9,12.5,0001.2,0004.67,0010.97,0003.93
2023-09-07 08:48:00,SystemResetWarning,0830.6,4.99,000.00,028.4,026.7,000.0,036.8,029.9,12.4,0001.4,0004.66,0011.19,0003.93
2023-09-07 08:49:00,SystemResetWarning,0830.6,5.00,000.00,028.4,026.9,000.0,036.8,029.9,12.1,0001.5,0004.67,0011.47,0003.93
2023-09-07 08:50:00,SystemResetWarning,0830.6,5.00,000.00,028.4,027.0,000.0,036.8,030.0,12.4,0001.7,0004.68,0011.94,0003.94
2023-09-07 08:51:00,SystemResetWarning,0830.7,4.99,000.00,028.4,027.1,000.0,036.8,030.0,13.2,0001.9,0004.62,0012.34,0003.90
2023-09-07 08:52:00,SystemResetWarning,0830.5,5.00,000.00,028.5,027.2,000.0,036.8,030.1,15.4,0001.7,0004.49,0012.09,0003.79
2023-09-07 08:53:00,SystemResetWarning,0830.6,5.00,000.00,028.5,027.3,000.0,036.8,030.1,16.0,0001.6,0004.33,0010.68,0003.63
2023-09-07 08:54:00,SystemResetWarning,0830.5,5.00,000.00,028.5,027.3,000.0,036.8,030.1,14.4,0001.4,0004.08,0010.25,0003.42
2023-09-07 08:55:00,SystemResetWarning,0830.4,4.99,000.00,028.5,027.4,000.0,036.8,030.2,12.2,0001.2,0003.86,0010.00,0003.24
2023-09-07 08:56:00,SystemResetWarning,0830.5,5.00,000.00,028.6,027.4,000.0,036.9,030.2,14.7,0001.4,0003.64,0009.88,0002.95
2023-09-07 08:57:00,SystemResetWarning,0830.5,5.00,000.00,028.6,027.5,000.0,036.9,030.2,15.8,0000.4,0003.43,0009.43,0002.66
2023-09-07 08:58:00,SystemResetWarning,0830.6,5.00,000.00,028.6,027.5,000.0,036.9,030.2,16.1,0000.0,0003.17,0008.94,0002.32
2023-09-07 08:59:00,SystemResetWarning,0830.7,5.00,000.00,028.6,027.6,000.0,036.9,030.3,16.7,0000.0,0002.83,0008.41,0001.97
